This demonstration page uses our WeatherBlox Daily Observations layout. Learn more.

38.88101, -77.10428

Hourly Observations for March 5, 2017

Temp ( °F °C ) Dew Point ( °F °C ) Humidity (%) Winds ( mph kmh ) Pressure ( in mb ) Visibility ( mi km ) Precip ( " mm )
12:52 am 00:52 Clear 31 -0.6 6 -14.4 35 35 NNE 15 24 30.65 1038 10 16.09344 0 0
1:52 am 01:52 Clear 30 -1.1 7 -13.9 38 38 NNE 15 24 30.65 1038 10 16.09344 0 0
2:52 am 02:52 Clear 28 -2.2 6 -14.4 39 39 NNE 15 24 30.65 1038 10 16.09344 0 0
3:52 am 03:52 Clear 26 -3.3 7 -13.9 44 44 NE 13 20 30.68 1039 10 16.09344 0 0
4:52 am 04:52 Clear 24 -4.4 4 -15.6 42 42 NNE 12 19 30.68 1039 10 16.09344 0 0
5:52 am 05:52 Clear 24 -4.4 3 -16.1 40 40 NNE 13 20 30.68 1039 10 16.09344 0 0
6:52 am 06:52 Mostly Sunny 23 -5 1 -17.2 38 38 N 14 22 30.71 1040 10 16.09344 0 0
7:52 am 07:52 Mostly Sunny 24 -4.4 -1 -18.3 33 33 N 12 19 30.71 1040 10 16.09344 0 0
8:52 am 08:52 Mostly Sunny 26 -3.3 -4 -20 26 26 NNE 6 9 30.74 1041 10 16.09344 0 0
9:52 am 09:52 Mostly Sunny 28 -2.2 -3 -19.4 26 26 N 5 7 30.74 1041 10 16.09344 0 0
10:52 am 10:52 Partly Cloudy 30 -1.1 -2 -18.9 25 25 N 5 7 30.71 1040 10 16.09344 0 0
11:52 am 11:52 Mostly Sunny 32 0 -1 -18.3 24 24 SSE 5 7 30.71 1040 10 16.09344 0 0
12:52 pm 12:52 Sunny 35 1.7 -3 -19.4 19 19 NE 3 6 30.65 1038 10 16.09344 0 0
1:52 pm 13:52 Sunny 36 2.2 -2 -18.9 19 19 ESE 5 7 30.62 1037 10 16.09344 0 0
2:52 pm 14:52 Sunny 38 3.3 -2 -18.9 18 18 SSE 6 9 30.59 1036 10 16.09344 0 0
3:52 pm 15:52 Mostly Sunny 39 3.9 -3 -19.4 16 16 ESE 3 6 30.56 1035 10 16.09344 0 0
4:52 pm 16:52 Mostly Sunny 39 3.9 -2 -18.9 17 17 ESE 3 6 30.56 1035 10 16.09344 0 0
5:52 pm 17:52 Partly Cloudy 38 3.3 1 -17.2 21 21 S 6 9 30.53 1034 10 16.09344 0 0
6:52 pm 18:52 Partly Cloudy 37 2.8 1 -17.2 22 22 SW 7 11 30.56 1035 10 16.09344 0 0
7:52 pm 19:52 Partly Cloudy 36 2.2 2 -16.7 23 23 SSW 6 9 30.56 1035 10 16.09344 0 0
8:52 pm 20:52 Partly Cloudy 38 3.3 5 -15 25 25 S 3 6 30.56 1035 10 16.09344 0 0
9:52 pm 21:52 Partly Cloudy 35 1.7 12 -11.1 38 38 SSE 3 6 30.56 1035 10 16.09344 0 0
10:52 pm 22:52 Mostly Cloudy 33 0.6 12 -11.1 42 42 SSE 6 9 30.53 1034 10 16.09344 0 0
11:52 pm 23:52 Mostly Cloudy 33 0.6 11 -11.7 40 40 SE 5 7 30.53 1034 10 16.09344 0 0

Powered by AerisWeather